{"data":{"norad_id":64689,"epoch":"2026-09-20T09:06:40.308480Z","epoch_age_seconds":141965,"freshness":"FRESH","line1":"1 64689U 25139AB  26263.37963320  .00013513  00000+0  41052-3 0  9992","line2":"2 64689  53.1599 298.3494 0001080  96.3439 263.7687 15.34386599 70154","mean_motion":15.34386599,"eccentricity":0.000108,"inclination_deg":53.1599,"raan_deg":298.3494,"arg_perigee_deg":96.3439,"mean_anomaly_deg":263.7687,"bstar":0.00041052,"rev_number":7015,"period_min":93.848577727314,"perigee_km":462.00425604545,"apogee_km":463.48188614081,"semimajor_km":6840.8800710931,"source":"CELESTRAK","updated_at":"2026-09-21T09:00:35.402251Z"}}